LiveATC.Net - Listen to live air traffic control over the Internet!


ICAO: ZBAA  IATA: PEK   Airport: Beijing Capital International Airport
City: Beijing
Country: China   Continent: Asia
ZBAA METAR Weather: ZBAA 121130Z 07001MPS CAVOK M04/M14 Q1025 NOSIG
ZBAA Flight Activity (FlightAware)

ZBAA Tower
Feed Status: UP   Listeners: 14
Listen in your browser - HTML5 player (in browser, HTML5)
Click here to listen with your own player (launches your MP3 player)
Archive Access: ZBAA Tower
FacilityFrequency
Beijing Tower (Rwy 01/19)118.600

NOTICE

Unauthorized use prohibited. See LiveATC.net Terms of Service


Airport/ARTCC Code
Frequency Search
(e.g., 124.400, 128.75)
Site-wide search
 


Browse Feeds
Top 50 Feeds
Coverage Map
Bad Weather Areas

LiveATC FAQ
Offer LiveATC feed
Contact LiveATC.net
Press Inquiries

LiveATC on iPhone
LiveATC on Android

Windows Phone
Windows 8/10

LiveATC Mobile
(Mobile browser)

ATC Audio Archives
Interesting Recordings

LiveATC Forums


Home Page
About LiveATC.net
Make a Donation
Terms of Use
Privacy Policy

Canadian Air Freqs

AIRMETs/SIGMETs

FAA Airport Status
Nat'l Airspace Status
Arrival Demand Charts


Server Software By:
Icecast.org
Liquidsoap